Location: Taupo
(38.6830°S, 176.0830°E)
Time: 23:28:09
(UTC+13:00)

ISS - Pass Details

Date: 02 February 2019
Orbit: 403 x 411 km, 51.6° (Epoch: 16 February)

Event Time Altitude Azimuth Distance (km) Brightness Sun altitude
Exits shadow 04:31:37 51° 227° (SW) 535 -3.4 -19.8°
Maximum altitude 04:31:46 51° 215° (SW) 531 -3.3 -19.8°
Drops below altitude 10° 04:35:03 10° 137° (SE) 1,497 0.3 -19.3°
Sets 04:37:12 0° 132° (SE) 2,363 1.8 -19.0°
